| time (UTC) | temp C | wind direction | speed KPH | gust KPH | rain 1hr cm | rain 24hr cm | rain mn cm | humidity % | barometer mb |
| 20260505070532 | 7 | 204 | 0.0 | 0.0 | 0.00 | 0.00 | 0.00 | 65 | 1012.8 |
| 20260505070028 | 6 | 192 | 0.0 | 0.0 | 0.00 | 0.00 | 0.00 | 68 | 1012.6 |
| 20260505065524 | 6 | 155 | 0.0 | 0.0 | 0.00 | 0.00 | 0.00 | 70 | 1012.8 |
| 20260505065020 | 6 | 165 | 0.0 | 0.0 | 0.00 | 0.00 | 0.00 | 70 | 1012.6 |
| 20260505064517 | 7 | 151 | 0.0 | 0.0 | 0.00 | 0.00 | 0.00 | 70 | 1012.6 |
| 20260505064016 | 7 | 134 | 0.0 | 1.6 | 0.00 | 0.00 | 0.00 | 65 | 1012.9 |
| 20260505063513 | 7 | 149 | 0.0 | 0.0 | 0.00 | 0.00 | 0.00 | 66 | 1012.5 |
| 20260505063008 | 7 | 118 | 0.0 | 0.0 | 0.00 | 0.00 | 0.00 | 67 | 1012.6 |
| 20260505062505 | 7 | 201 | 0.0 | 0.0 | 0.00 | 0.00 | 0.00 | 65 | 1012.8 |
| 20260505062003 | 7 | 175 | 0.0 | 1.6 | 0.00 | 0.00 | 0.00 | 63 | 1012.8 |
| 20260505061500 | 7 | 267 | 0.0 | 0.0 | 0.00 | 0.00 | 0.00 | 65 | 1012.4 |
| 20260505060957 | 7 | 145 | 0.0 | 1.6 | 0.00 | 0.00 | 0.00 | 64 | 1012.6 |
| 20260505060455 | 7 | 253 | 0.0 | 1.6 | 0.00 | 0.00 | 0.00 | 65 | 1012.8 |
| 20260505055951 | 7 | 137 | 0.0 | 0.0 | 0.00 | 0.08 | 0.08 | 67 | 1012.6 |
| 20260505055447 | 7 | 112 | 0.0 | 0.0 | 0.00 | 0.08 | 0.08 | 68 | 1012.8 |
| 20260505054944 | 7 | 157 | 0.0 | 0.0 | 0.00 | 0.08 | 0.08 | 70 | 1012.4 |
| 20260505054441 | 7 | 164 | 0.0 | 0.0 | 0.00 | 0.08 | 0.08 | 67 | 1012.4 |
| 20260505053939 | 7 | 164 | 0.0 | 0.0 | 0.00 | 0.08 | 0.08 | 65 | 1012.5 |
| 20260505053436 | 8 | 147 | 0.0 | 0.0 | 0.00 | 0.08 | 0.08 | 68 | 1012.4 |
| 20260505052932 | 8 | 152 | 0.0 | 0.0 | 0.00 | 0.08 | 0.08 | 64 | 1012.5 |
| 20260505052429 | 8 | 143 | 0.0 | 0.0 | 0.00 | 0.08 | 0.08 | 62 | 1012.5 |
| 20260505051927 | 8 | 174 | 0.0 | 0.0 | 0.00 | 0.08 | 0.08 | 62 | 1012.3 |
| 20260505051424 | 8 | 134 | 0.0 | 0.0 | 0.00 | 0.08 | 0.08 | 66 | 1012.1 |
| 20260505050922 | 8 | 118 | 0.0 | 1.6 | 0.00 | 0.08 | 0.08 | 65 | 1012.3 |
| 20260505050420 | 8 | 141 | 0.0 | 0.0 | 0.00 | 0.08 | 0.08 | 58 | 1012.6 |
| 20260505041347 | 10 | 150 | 0.0 | 0.0 | 0.00 | 0.08 | 0.08 | 51 | 1012.6 |
| 20260505040844 | 10 | 156 | 0.0 | 0.0 | 0.00 | 0.08 | 0.08 | 52 | 1012.5 |
| 20260505040342 | 10 | 225 | 0.0 | 0.0 | 0.00 | 0.08 | 0.08 | 48 | 1012.5 |
| 20260505035839 | 9 | 217 | 0.0 | 0.0 | 0.00 | 0.08 | 0.08 | 50 | 1012.6 |
| 20260505035334 | 9 | 218 | 0.0 | 0.0 | 0.00 | 0.08 | 0.08 | 52 | 1012.3 |
| 20260505034832 | 8 | 189 | 0.0 | 0.0 | 0.00 | 0.08 | 0.08 | 54 | 1012.4 |
| 20260505034328 | 8 | 189 | 0.0 | 0.0 | 0.00 | 0.08 | 0.08 | 54 | 1012.4 |
| 20260505033826 | 9 | 189 | 0.0 | 0.0 | 0.00 | 0.08 | 0.08 | 58 | 1012.4 |
| 20260505033322 | 9 | 189 | 0.0 | 0.0 | 0.00 | 0.08 | 0.08 | 60 | 1012.3 |
| 20260505032821 | 9 | 191 | 0.0 | 0.0 | 0.00 | 0.08 | 0.08 | 56 | 1012.1 |
| 20260505032316 | 10 | 135 | 0.0 | 0.0 | 0.00 | 0.08 | 0.08 | 56 | 1012.0 |
| 20260505031814 | 10 | 121 | 0.0 | 0.0 | 0.00 | 0.08 | 0.08 | 61 | 1011.9 |
| 20260505031310 | 10 | 181 | 0.0 | 0.0 | 0.00 | 0.08 | 0.08 | 56 | 1012.0 |
| 20260505030808 | 10 | 175 | 0.0 | 0.0 | 0.00 | 0.08 | 0.08 | 61 | 1011.9 |
| 20260505030304 | 10 | 106 | 0.0 | 0.0 | 0.00 | 0.08 | 0.08 | 60 | 1011.9 |
| 20260505025759 | 10 | 128 | 0.0 | 0.0 | 0.00 | 0.08 | 0.08 | 57 | 1011.9 |
| 20260505025257 | 10 | 128 | 0.0 | 0.0 | 0.00 | 0.08 | 0.08 | 56 | 1012.0 |
| 20260505024755 | 10 | 128 | 0.0 | 0.0 | 0.00 | 0.08 | 0.08 | 57 | 1011.8 |
| 20260505024252 | 11 | 127 | 0.0 | 0.0 | 0.00 | 0.08 | 0.08 | 54 | 1011.8 |
| 20260505023749 | 11 | 159 | 0.0 | 0.0 | 0.00 | 0.08 | 0.08 | 53 | 1011.7 |
| 20260505023246 | 11 | 120 | 0.0 | 0.0 | 0.00 | 0.08 | 0.08 | 55 | 1011.5 |
| 20260505022744 | 12 | 187 | 0.0 | 0.0 | 0.00 | 0.08 | 0.08 | 43 | 1011.7 |
| 20260505022241 | 12 | 188 | 0.0 | 0.0 | 0.00 | 0.08 | 0.08 | 42 | 1011.5 |
| 20260505021737 | 12 | 224 | 0.0 | 1.6 | 0.00 | 0.08 | 0.08 | 39 | 1011.3 |
| 20260505021235 | 13 | 198 | 0.0 | 0.0 | 0.00 | 0.08 | 0.08 | 38 | 1011.8 |
| 20260505020730 | 13 | 194 | 0.0 | 0.0 | 0.00 | 0.08 | 0.08 | 38 | 1011.4 |
| 20260505020225 | 13 | 194 | 0.0 | 0.0 | 0.00 | 0.08 | 0.08 | 37 | 1011.7 |
| 20260505015723 | 13 | 194 | 0.0 | 0.0 | 0.00 | 0.08 | 0.08 | 36 | 1011.0 |
| 20260505015220 | 13 | 195 | 0.0 | 0.0 | 0.00 | 0.08 | 0.08 | 35 | 1011.4 |
| 20260505014717 | 14 | 178 | 0.0 | 0.0 | 0.00 | 0.08 | 0.08 | 35 | 1011.7 |
| 20260505014214 | 14 | 162 | 0.0 | 0.0 | 0.00 | 0.08 | 0.08 | 32 | 1011.8 |
| 20260505013711 | 14 | 161 | 0.0 | 0.0 | 0.00 | 0.08 | 0.08 | 34 | 1011.5 |
| 20260505013208 | 15 | 212 | 0.0 | 0.0 | 0.00 | 0.08 | 0.08 | 33 | 1011.3 |
| 20260505012706 | 15 | 220 | 0.0 | 0.0 | 0.00 | 0.08 | 0.08 | 32 | 1011.4 |
| 20260505012203 | 15 | 232 | 0.0 | 0.0 | 0.00 | 0.08 | 0.08 | 31 | 1011.4 |
| 20260505011659 | 16 | 181 | 0.0 | 1.6 | 0.00 | 0.08 | 0.08 | 27 | 1011.5 |
| 20260505011156 | 16 | 195 | 0.0 | 0.0 | 0.00 | 0.08 | 0.08 | 27 | 1011.7 |
| 20260505010651 | 16 | 209 | 0.0 | 0.0 | 0.00 | 0.08 | 0.08 | 28 | 1011.4 |
| 20260505010149 | 16 | 218 | 1.6 | 1.6 | 0.00 | 0.08 | 0.08 | 27 | 1011.5 |
| 20260505005644 | 17 | 129 | 0.0 | 0.0 | 0.00 | 0.08 | 0.08 | 27 | 1011.7 |
| 20260505005142 | 17 | 185 | 1.6 | 1.6 | 0.00 | 0.08 | 0.08 | 24 | 1011.4 |
| 20260505004639 | 17 | 227 | 3.2 | 4.8 | 0.00 | 0.08 | 0.08 | 23 | 1011.4 |
| 20260505004135 | 17 | 149 | 0.0 | 0.0 | 0.00 | 0.08 | 0.08 | 28 | 1011.0 |
| 20260505003632 | 17 | 172 | 0.0 | 0.0 | 0.00 | 0.08 | 0.08 | 24 | 1011.5 |
| 20260505003130 | 17 | 106 | 0.0 | 0.0 | 0.00 | 0.08 | 0.08 | 25 | 1011.7 |
| 20260505002626 | 17 | 178 | 1.6 | 1.6 | 0.00 | 0.08 | 0.08 | 24 | 1011.8 |
| 20260505002124 | 18 | 275 | 1.6 | 3.2 | 0.00 | 0.08 | 0.08 | 25 | 1011.7 |
| 20260505001621 | 18 | 220 | 0.0 | 0.0 | 0.00 | 0.08 | 0.08 | 27 | 1012.0 |
| 20260505001119 | 18 | 151 | 0.0 | 1.6 | 0.00 | 0.08 | 0.08 | 27 | 1011.7 |
| 20260505000615 | 18 | 203 | 0.0 | 0.0 | 0.00 | 0.08 | 0.08 | 28 | 1011.9 |
| 20260505000114 | 18 | 130 | 0.0 | 0.0 | 0.00 | 0.08 | 0.08 | 27 | 1012.1 |
| 20260504235609 | 18 | 221 | 0.0 | 1.6 | 0.00 | 0.08 | 0.08 | 25 | 1012.0 |
| 20260504235106 | 18 | 247 | 0.0 | 1.6 | 0.00 | 0.08 | 0.08 | 25 | 1011.9 |
| 20260504234603 | 18 | 148 | 1.6 | 3.2 | 0.00 | 0.08 | 0.08 | 25 | 1012.1 |
| 20260504234100 | 18 | 238 | 1.6 | 1.6 | 0.00 | 0.08 | 0.08 | 24 | 1012.0 |
| 20260504233555 | 18 | 199 | 3.2 | 4.8 | 0.00 | 0.08 | 0.08 | 25 | 1012.0 |
| 20260504233052 | 19 | 229 | 1.6 | 1.6 | 0.00 | 0.08 | 0.08 | 24 | 1012.1 |
| 20260504232550 | 19 | 190 | 1.6 | 1.6 | 0.00 | 0.08 | 0.08 | 24 | 1012.4 |
| 20260504232047 | 18 | 276 | 1.6 | 1.6 | 0.00 | 0.08 | 0.08 | 25 | 1012.1 |
| 20260504231543 | 18 | 283 | 1.6 | 1.6 | 0.00 | 0.08 | 0.08 | 25 | 1012.0 |
| 20260504231040 | 18 | 277 | 4.8 | 8.0 | 0.00 | 0.08 | 0.08 | 24 | 1011.9 |
| 20260504230536 | 18 | 219 | 6.4 | 9.7 | 0.00 | 0.08 | 0.08 | 24 | 1012.1 |
| 20260504230035 | 18 | 223 | 0.0 | 1.6 | 0.00 | 0.08 | 0.08 | 24 | 1012.0 |
| 20260504225532 | 18 | 224 | 1.6 | 3.2 | 0.00 | 0.08 | 0.08 | 24 | 1012.0 |
| 20260504225029 | 18 | 256 | 0.0 | 1.6 | 0.00 | 0.08 | 0.08 | 28 | 1011.8 |
| 20260504224525 | 18 | 168 | 4.8 | 8.0 | 0.00 | 0.08 | 0.08 | 28 | 1012.0 |
| 20260504224023 | 18 | 249 | 4.8 | 8.0 | 0.00 | 0.08 | 0.08 | 26 | 1011.8 |
| 20260504223519 | 18 | 191 | 4.8 | 9.7 | 0.00 | 0.08 | 0.08 | 27 | 1011.9 |
| 20260504223015 | 19 | 128 | 6.4 | 9.7 | 0.00 | 0.08 | 0.08 | 25 | 1011.9 |
| 20260504222512 | 19 | 99 | 1.6 | 1.6 | 0.00 | 0.08 | 0.08 | 26 | 1011.9 |
| 20260504222010 | 19 | 269 | 1.6 | 3.2 | 0.00 | 0.08 | 0.08 | 27 | 1011.9 |
| 20260504221507 | 19 | 142 | 3.2 | 4.8 | 0.00 | 0.08 | 0.08 | 28 | 1012.0 |
| 20260504221004 | 19 | 188 | 3.2 | 3.2 | 0.00 | 0.08 | 0.08 | 28 | 1011.9 |
| 20260504220500 | 20 | 117 | 0.0 | 1.6 | 0.00 | 0.08 | 0.08 | 28 | 1011.9 |
| 20260504215957 | 20 | 242 | 1.6 | 3.2 | 0.00 | 0.08 | 0.08 | 26 | 1011.9 |
| 20260504215453 | 20 | 47 | 3.2 | 3.2 | 0.00 | 0.08 | 0.08 | 29 | 1011.9 |
| 20260504214950 | 20 | 209 | 1.6 | 3.2 | 0.00 | 0.08 | 0.08 | 30 | 1012.1 |
| 20260504214446 | 20 | 212 | 1.6 | 3.2 | 0.00 | 0.08 | 0.08 | 30 | 1012.3 |
| 20260504213943 | 20 | 168 | 1.6 | 3.2 | 0.00 | 0.08 | 0.08 | 28 | 1012.3 |
| 20260504213439 | 20 | 214 | 1.6 | 1.6 | 0.00 | 0.08 | 0.08 | 28 | 1012.4 |
| 20260504212937 | 20 | 187 | 4.8 | 4.8 | 0.00 | 0.08 | 0.08 | 30 | 1012.8 |
| 20260504212432 | 19 | 85 | 1.6 | 1.6 | 0.00 | 0.08 | 0.08 | 35 | 1012.5 |
| 20260504211931 | 18 | 277 | 1.6 | 1.6 | 0.00 | 0.08 | 0.08 | 32 | 1012.4 |
| 20260504211426 | 20 | 279 | 4.8 | 8.0 | 0.00 | 0.08 | 0.08 | 29 | 1013.0 |
| 20260504210924 | 21 | 181 | 0.0 | 0.0 | 0.00 | 0.08 | 0.08 | 31 | 1012.6 |
| 20260504210421 | 21 | 99 | 3.2 | 3.2 | 0.00 | 0.08 | 0.08 | 34 | 1012.9 |
| 20260504205918 | 20 | 173 | 3.2 | 4.8 | 0.00 | 0.08 | 0.08 | 30 | 1012.9 |
| 20260504205416 | 19 | 337 | 3.2 | 4.8 | 0.00 | 0.08 | 0.08 | 34 | 1012.9 |
| 20260504204914 | 19 | 25 | 1.6 | 1.6 | 0.00 | 0.08 | 0.08 | 32 | 1013.2 |
| 20260504204412 | 19 | 241 | 3.2 | 3.2 | 0.00 | 0.08 | 0.08 | 34 | 1013.4 |
| 20260504203911 | 20 | 187 | 1.6 | 3.2 | 0.00 | 0.08 | 0.08 | 35 | 1013.2 |
| 20260504203408 | 20 | 236 | 1.6 | 3.2 | 0.00 | 0.08 | 0.08 | 33 | 1013.2 |
| 20260504202903 | 19 | 299 | 1.6 | 1.6 | 0.00 | 0.08 | 0.08 | 33 | 1013.2 |
| 20260504202401 | 19 | 183 | 3.2 | 4.8 | 0.00 | 0.08 | 0.08 | 33 | 1013.6 |
| 20260504201857 | 20 | 258 | 3.2 | 4.8 | 0.00 | 0.08 | 0.08 | 34 | 1013.6 |
| 20260504201355 | 18 | 73 | 1.6 | 1.6 | 0.00 | 0.08 | 0.08 | 34 | 1013.5 |
| 20260504200852 | 18 | 237 | 8.0 | 8.0 | 0.00 | 0.08 | 0.08 | 35 | 1013.5 |
| 20260504200348 | 19 | 289 | 3.2 | 3.2 | 0.00 | 0.08 | 0.08 | 34 | 1013.6 |
| 20260504195845 | 19 | 114 | 1.6 | 3.2 | 0.00 | 0.08 | 0.08 | 34 | 1013.8 |
| 20260504195340 | 18 | 177 | 1.6 | 3.2 | 0.00 | 0.08 | 0.08 | 33 | 1013.6 |
| 20260504194838 | 18 | 4 | 3.2 | 3.2 | 0.00 | 0.08 | 0.08 | 33 | 1013.5 |
| 20260504194333 | 19 | 175 | 3.2 | 3.2 | 0.00 | 0.08 | 0.08 | 35 | 1013.6 |
| 20260504193829 | 18 | 100 | 4.8 | 4.8 | 0.00 | 0.08 | 0.08 | 35 | 1013.6 |
| 20260504193327 | 18 | 65 | 1.6 | 1.6 | 0.00 | 0.08 | 0.08 | 37 | 1013.6 |
| 20260504192826 | 18 | 182 | 4.8 | 4.8 | 0.00 | 0.08 | 0.08 | 34 | 1013.8 |
| 20260504192323 | 18 | 194 | 1.6 | 1.6 | 0.00 | 0.08 | 0.08 | 34 | 1013.8 |
| 20260504191822 | 19 | 143 | 0.0 | 1.6 | 0.00 | 0.08 | 0.08 | 36 | 1013.8 |
| 20260504191319 | 19 | 295 | 1.6 | 3.2 | 0.00 | 0.08 | 0.08 | 37 | 1013.7 |
| 20260504190814 | 18 | 116 | 1.6 | 3.2 | 0.00 | 0.08 | 0.08 | 37 | 1013.8 |
| 20260504190310 | 18 | 109 | 1.6 | 1.6 | 0.00 | 0.08 | 0.08 | 38 | 1013.8 |
| 20260504185807 | 18 | 258 | 4.8 | 4.8 | 0.00 | 0.08 | 0.08 | 37 | 1014.2 |
| 20260504185305 | 18 | 171 | 4.8 | 8.0 | 0.00 | 0.08 | 0.08 | 38 | 1014.3 |
| 20260504184800 | 18 | 242 | 3.2 | 3.2 | 0.00 | 0.08 | 0.08 | 39 | 1014.1 |
| 20260504184256 | 18 | 264 | 4.8 | 8.0 | 0.00 | 0.08 | 0.08 | 40 | 1014.1 |
| 20260504183752 | 18 | 263 | 3.2 | 3.2 | 0.00 | 0.08 | 0.08 | 39 | 1014.0 |
| 20260504183249 | 17 | 118 | 1.6 | 3.2 | 0.00 | 0.08 | 0.08 | 40 | 1014.3 |
| 20260504182747 | 17 | 124 | 4.8 | 4.8 | 0.00 | 0.08 | 0.08 | 39 | 1014.5 |
| 20260504182244 | 18 | 238 | 1.6 | 1.6 | 0.00 | 0.08 | 0.08 | 40 | 1014.1 |
| 20260504181742 | 18 | 256 | 3.2 | 3.2 | 0.00 | 0.08 | 0.08 | 42 | 1014.5 |
| 20260504181239 | 17 | 240 | 1.6 | 3.2 | 0.00 | 0.08 | 0.08 | 41 | 1014.7 |
| 20260504180738 | 17 | 132 | 1.6 | 3.2 | 0.00 | 0.08 | 0.08 | 41 | 1014.9 |
| 20260504180236 | 17 | 255 | 3.2 | 4.8 | 0.00 | 0.08 | 0.08 | 42 | 1014.8 |
| 20260504175733 | 17 | 110 | 0.0 | 0.0 | 0.00 | 0.08 | 0.08 | 46 | 1014.6 |
| 20260504175230 | 17 | 151 | 0.0 | 1.6 | 0.00 | 0.08 | 0.08 | 43 | 1014.8 |
| 20260504174728 | 17 | 313 | 1.6 | 3.2 | 0.00 | 0.08 | 0.08 | 45 | 1014.7 |
| 20260504174226 | 17 | 294 | 4.8 | 4.8 | 0.00 | 0.08 | 0.08 | 41 | 1014.7 |
| 20260504173722 | 17 | 141 | 1.6 | 1.6 | 0.00 | 0.08 | 0.08 | 42 | 1014.7 |
| 20260504173219 | 16 | 328 | 3.2 | 3.2 | 0.00 | 0.08 | 0.08 | 44 | 1014.8 |
| 20260504172715 | 17 | 170 | 3.2 | 3.2 | 0.00 | 0.08 | 0.08 | 42 | 1015.1 |
| 20260504172212 | 17 | 261 | 1.6 | 1.6 | 0.00 | 0.08 | 0.08 | 44 | 1014.9 |
| 20260504171709 | 16 | 260 | 3.2 | 3.2 | 0.00 | 0.08 | 0.08 | 44 | 1014.9 |
| 20260504171206 | 15 | 86 | 1.6 | 3.2 | 0.00 | 0.08 | 0.08 | 50 | 1014.9 |
| 20260504170702 | 15 | 125 | 4.8 | 4.8 | 0.00 | 0.08 | 0.08 | 50 | 1014.9 |
| 20260504170200 | 15 | 137 | 0.0 | 0.0 | 0.00 | 0.08 | 0.08 | 55 | 1014.9 |
| 20260504160118 | 12 | 93 | 0.0 | 1.6 | 0.00 | 0.08 | 0.08 | 67 | 1015.7 |
| 20260504151045 | 11 | 136 | 0.0 | 0.0 | 0.00 | 0.08 | 0.08 | 71 | 1016.0 |
| 20260504150543 | 11 | 115 | 0.0 | 1.6 | 0.00 | 0.08 | 0.08 | 73 | 1016.3 |
| 20260504141008 | 9 | 128 | 0.0 | 0.0 | 0.00 | 0.08 | 0.08 | 84 | 1016.5 |
| 20260504140505 | 8 | 123 | 0.0 | 0.0 | 0.00 | 0.08 | 0.08 | 85 | 1016.5 |
| 20260504130430 | 6 | 128 | 0.0 | 0.0 | 0.00 | 0.08 | 0.08 | 94 | 1016.2 |
| 20260504110317 | 6 | 194 | 0.0 | 0.0 | 0.00 | 0.08 | 0.08 | 93 | 1016.2 |
| 20260504100235 | 7 | 186 | 0.0 | 0.0 | 0.13 | 0.08 | 0.08 | 92 | 1016.7 |
| 20260504081628 | 9 | 151 | 0.0 | 0.0 | 0.00 | 0.00 | 0.00 | 73 | 1016.2 |
| 20260504081124 | 9 | 104 | 0.0 | 0.0 | 0.00 | 0.00 | 0.00 | 73 | 1016.2 |
| 20260504080621 | 9 | 125 | 0.0 | 0.0 | 0.00 | 0.00 | 0.00 | 73 | 1016.3 |
| 20260504080117 | 9 | 105 | 0.0 | 0.0 | 0.00 | 0.00 | 0.00 | 75 | 1016.4 |